AXM824 WMKK-VTSP

Flight info

Callsign AXM824
Flight time 1h 4m
Altitude 38000
Route ATIMU1F ATIMU DCT TEPUS DCT AGRES DCT VPG DCT VPL DCT DALAN DCT NUTGU DCT REBED DCT URGAD URGAD1C
Aircraft A320/M-SDE3FGHIRWY/LB1

Departure

Time 2026-05-06 06:58
Airport Kuala Lumpur International Airport (WMKK)

Arrival

Time 2026-05-06 08:02
Airport Phuket International Airport (VTSP)
Time Latitude Longitude Altitude Speed Heading
2026-05-06 06:22 2.73833 101.68574 42 ft 0 kts 146°
2026-05-06 06:22 2.73834 101.68574 42 ft 0 kts 146°
2026-05-06 06:47 2.73842 101.68569 42 ft 4 kts 152°
2026-05-06 06:47 2.73866 101.68561 42 ft 4 kts 187°
2026-05-06 06:47 2.73888 101.68571 42 ft 4 kts 228°
2026-05-06 06:48 2.73900 101.68586 42 ft 0 kts 236°
2026-05-06 06:50 2.73896 101.68580 40 ft 4 kts 237°
2026-05-06 06:50 2.73889 101.68536 42 ft 9 kts 265°
2026-05-06 06:51 2.73861 101.68459 40 ft 15 kts 237°
2026-05-06 06:51 2.73802 101.68371 39 ft 14 kts 236°
2026-05-06 06:51 2.73757 101.68304 40 ft 9 kts 236°
2026-05-06 06:51 2.73724 101.68254 42 ft 11 kts 236°
2026-05-06 06:52 2.73678 101.68196 40 ft 7 kts 209°
2026-05-06 06:52 2.73635 101.68211 40 ft 11 kts 148°
2026-05-06 06:52 2.73534 101.68278 40 ft 23 kts 146°
2026-05-06 06:52 2.73419 101.68356 39 ft 18 kts 146°
2026-05-06 06:53 2.73322 101.68422 38 ft 15 kts 146°
2026-05-06 06:53 2.73246 101.68473 39 ft 11 kts 146°
2026-05-06 06:53 2.73195 101.68507 40 ft 10 kts 147°
2026-05-06 06:53 2.73122 101.68556 39 ft 14 kts 146°
2026-05-06 06:54 2.73020 101.68625 40 ft 20 kts 146°
2026-05-06 06:54 2.72904 101.68702 40 ft 20 kts 147°
2026-05-06 06:54 2.72790 101.68778 39 ft 20 kts 143°
2026-05-06 06:54 2.72677 101.68855 40 ft 20 kts 146°
2026-05-06 06:55 2.72561 101.68933 40 ft 20 kts 146°
2026-05-06 06:55 2.72441 101.69014 40 ft 21 kts 146°
2026-05-06 06:55 2.72315 101.69100 40 ft 22 kts 146°
2026-05-06 06:55 2.72183 101.69189 38 ft 23 kts 146°
2026-05-06 06:56 2.72044 101.69281 40 ft 25 kts 146°
2026-05-06 06:56 2.71901 101.69379 39 ft 22 kts 145°
2026-05-06 06:56 2.71815 101.69382 38 ft 13 kts 229°
2026-05-06 06:56 2.71768 101.69309 37 ft 12 kts 236°
2026-05-06 06:57 2.71752 101.69239 39 ft 11 kts 285°
2026-05-06 06:57 2.71799 101.69128 40 ft 20 kts 286°
2026-05-06 06:57 2.71979 101.68987 38 ft 63 kts 326°
2026-05-06 06:57 2.72535 101.68613 39 ft 126 kts 326°
2026-05-06 06:58 2.73401 101.68032 103 ft 167 kts 326°
2026-05-06 06:58 2.74360 101.67394 691 ft 169 kts 327°
2026-05-06 06:58 2.75338 101.66743 1457 ft 169 kts 327°
2026-05-06 06:58 2.76173 101.65915 2068 ft 178 kts 293°
2026-05-06 06:59 2.76301 101.64615 2326 ft 201 kts 268°
2026-05-06 06:59 2.76266 101.63128 2587 ft 228 kts 269°
2026-05-06 06:59 2.76265 101.61454 2946 ft 253 kts 270°
2026-05-06 06:59 2.76275 101.59625 3478 ft 269 kts 270°
2026-05-06 07:00 2.76293 101.57734 4289 ft 274 kts 270°
2026-05-06 07:00 2.76457 101.55845 5127 ft 279 kts 282°
2026-05-06 07:00 2.77090 101.54011 5955 ft 282 kts 294°
2026-05-06 07:00 2.77878 101.52204 6791 ft 285 kts 294°
2026-05-06 07:01 2.78676 101.50375 7589 ft 289 kts 293°
2026-05-06 07:01 2.79483 101.48522 8372 ft 293 kts 293°
2026-05-06 07:01 2.80298 101.46644 9127 ft 296 kts 293°
2026-05-06 07:01 2.81120 101.44743 9849 ft 299 kts 294°
2026-05-06 07:02 2.81959 101.42799 10328 ft 314 kts 293°
2026-05-06 07:02 2.82860 101.40724 10503 ft 337 kts 294°
2026-05-06 07:02 2.83810 101.38561 10900 ft 349 kts 296°
2026-05-06 07:02 2.85078 101.36472 11506 ft 354 kts 308°
2026-05-06 07:03 2.86748 101.34644 12168 ft 358 kts 316°
2026-05-06 07:03 2.88538 101.32905 12812 ft 361 kts 321°
2026-05-06 07:03 2.90679 101.31589 13421 ft 364 kts 336°
2026-05-06 07:03 2.93001 101.30554 14045 ft 367 kts 337°
2026-05-06 07:04 2.95352 101.29525 14649 ft 371 kts 338°
2026-05-06 07:04 2.97731 101.28495 15229 ft 374 kts 338°
2026-05-06 07:04 3.00134 101.27455 15794 ft 378 kts 338°
2026-05-06 07:04 3.02525 101.26416 16337 ft 382 kts 338°
2026-05-06 07:05 3.04969 101.25347 16881 ft 385 kts 338°
2026-05-06 07:05 3.07434 101.24267 17410 ft 388 kts 338°
2026-05-06 07:05 3.09921 101.23177 17919 ft 392 kts 338°
2026-05-06 07:05 3.12431 101.22079 18431 ft 395 kts 338°
2026-05-06 07:06 3.14962 101.20971 18935 ft 399 kts 338°
2026-05-06 07:06 3.17512 101.19855 19436 ft 402 kts 338°
2026-05-06 07:06 3.20083 101.18731 19927 ft 405 kts 338°
2026-05-06 07:06 3.22632 101.17617 20405 ft 408 kts 338°
2026-05-06 07:07 3.25240 101.16475 20871 ft 411 kts 338°
2026-05-06 07:07 3.27868 101.15325 21331 ft 414 kts 338°
2026-05-06 07:07 3.30510 101.14169 21791 ft 416 kts 338°
2026-05-06 07:07 3.33178 101.13003 22230 ft 419 kts 338°
2026-05-06 07:08 3.35858 101.11829 22663 ft 422 kts 338°
2026-05-06 07:08 3.38556 101.10648 23069 ft 425 kts 338°
2026-05-06 07:08 3.41267 101.09462 23475 ft 427 kts 338°
2026-05-06 07:08 3.44000 101.08266 23860 ft 430 kts 338°
2026-05-06 07:09 3.46712 101.07079 24235 ft 432 kts 338°
2026-05-06 07:09 3.49476 101.05870 24588 ft 435 kts 338°
2026-05-06 07:09 3.52255 101.04655 24936 ft 437 kts 338°
2026-05-06 07:09 3.55047 101.03430 25271 ft 439 kts 338°
2026-05-06 07:10 3.57857 101.02197 25610 ft 442 kts 338°
2026-05-06 07:10 3.60680 101.00960 25943 ft 444 kts 338°
2026-05-06 07:10 3.63519 100.99719 26261 ft 446 kts 338°
2026-05-06 07:10 3.66365 100.98474 26561 ft 448 kts 338°
2026-05-06 07:11 3.69190 100.97233 26850 ft 450 kts 337°
2026-05-06 07:11 3.72062 100.95963 27133 ft 452 kts 337°
2026-05-06 07:11 3.74943 100.94680 27409 ft 454 kts 337°
2026-05-06 07:11 3.77836 100.93387 27680 ft 456 kts 337°
2026-05-06 07:12 3.80739 100.92086 27949 ft 458 kts 337°
2026-05-06 07:12 3.83654 100.90780 28205 ft 460 kts 337°
2026-05-06 07:12 3.86584 100.89471 28467 ft 462 kts 337°
2026-05-06 07:12 3.89486 100.88179 28723 ft 463 kts 337°
2026-05-06 07:13 3.92438 100.86865 28977 ft 465 kts 337°
2026-05-06 07:13 3.95397 100.85551 29220 ft 467 kts 337°
2026-05-06 07:13 3.98378 100.84227 29459 ft 468 kts 337°
2026-05-06 07:13 4.01356 100.82904 29686 ft 470 kts 336°
2026-05-06 07:14 4.04350 100.81571 29911 ft 471 kts 336°
2026-05-06 07:14 4.07352 100.80233 30132 ft 473 kts 336°
2026-05-06 07:14 4.09348 100.79344 30271 ft 474 kts 336°
2026-05-06 07:14 4.13388 100.77543 30545 ft 476 kts 336°
2026-05-06 07:15 4.16378 100.76211 30748 ft 477 kts 336°
2026-05-06 07:15 4.19414 100.74855 30927 ft 478 kts 336°
2026-05-06 07:15 4.22456 100.73493 31160 ft 479 kts 336°
2026-05-06 07:15 4.25495 100.72129 31469 ft 478 kts 336°
2026-05-06 07:16 4.28531 100.70766 31728 ft 478 kts 336°
2026-05-06 07:16 4.31566 100.69403 31972 ft 478 kts 336°
2026-05-06 07:16 4.34599 100.68040 32227 ft 478 kts 336°
2026-05-06 07:16 4.37623 100.66682 32489 ft 477 kts 336°
2026-05-06 07:17 4.40610 100.65340 32738 ft 477 kts 336°
2026-05-06 07:17 4.43633 100.63982 33001 ft 476 kts 335°
2026-05-06 07:17 4.46652 100.62625 33271 ft 475 kts 335°
2026-05-06 07:17 4.49667 100.61272 33534 ft 474 kts 335°
2026-05-06 07:18 4.52678 100.59922 33797 ft 474 kts 335°
2026-05-06 07:18 4.55685 100.58572 34065 ft 473 kts 335°
2026-05-06 07:18 4.58686 100.57223 34342 ft 472 kts 335°
2026-05-06 07:18 4.61681 100.55877 34596 ft 471 kts 335°
2026-05-06 07:19 4.64632 100.54552 34831 ft 470 kts 335°
2026-05-06 07:19 4.67609 100.53215 35063 ft 470 kts 335°
2026-05-06 07:19 4.70589 100.51877 35294 ft 469 kts 335°
2026-05-06 07:19 4.73565 100.50541 35502 ft 468 kts 336°
2026-05-06 07:20 4.76537 100.49205 35719 ft 468 kts 336°
2026-05-06 07:20 4.79505 100.47870 35922 ft 467 kts 336°
2026-05-06 07:20 4.82467 100.46537 36116 ft 466 kts 336°
2026-05-06 07:20 4.85426 100.45208 36322 ft 465 kts 336°
2026-05-06 07:21 4.88342 100.43900 36493 ft 465 kts 336°
2026-05-06 07:21 4.91296 100.42574 36660 ft 465 kts 336°
2026-05-06 07:21 4.94245 100.41246 36857 ft 464 kts 336°
2026-05-06 07:21 4.97183 100.39920 37103 ft 462 kts 336°
2026-05-06 07:22 5.00105 100.38600 37358 ft 459 kts 336°
2026-05-06 07:22 5.03011 100.37290 37602 ft 457 kts 336°
2026-05-06 07:22 5.05904 100.35992 37770 ft 456 kts 336°
2026-05-06 07:23 5.11659 100.33410 37812 ft 456 kts 336°
2026-05-06 07:23 5.17443 100.30805 37814 ft 455 kts 336°
2026-05-06 07:24 5.23226 100.28199 37812 ft 456 kts 336°
2026-05-06 07:24 5.29016 100.25591 37812 ft 456 kts 336°
2026-05-06 07:25 5.34764 100.22882 37816 ft 456 kts 335°
2026-05-06 07:25 5.40438 100.20125 37809 ft 457 kts 335°
2026-05-06 07:26 5.46166 100.17352 37810 ft 457 kts 335°
2026-05-06 07:26 5.51908 100.14601 37810 ft 457 kts 335°
2026-05-06 07:27 5.57659 100.11857 37811 ft 458 kts 335°
2026-05-06 07:27 5.63373 100.09123 37811 ft 458 kts 335°
2026-05-06 07:28 5.69123 100.06372 37813 ft 458 kts 335°
2026-05-06 07:28 5.77773 100.02234 37814 ft 460 kts 335°
2026-05-06 07:29 5.83545 99.99463 37818 ft 460 kts 335°
2026-05-06 07:29 5.89279 99.96704 37818 ft 460 kts 335°
2026-05-06 07:30 5.95054 99.93928 37822 ft 460 kts 335°
2026-05-06 07:30 6.00833 99.91156 37823 ft 460 kts 335°
2026-05-06 07:31 6.06608 99.88386 37822 ft 460 kts 335°
2026-05-06 07:31 6.12393 99.85616 37823 ft 461 kts 335°
2026-05-06 07:32 6.18141 99.82860 37828 ft 461 kts 335°
2026-05-06 07:32 6.23925 99.80086 37829 ft 460 kts 335°
2026-05-06 07:33 6.29704 99.77311 37831 ft 460 kts 335°
2026-05-06 07:33 6.35418 99.74422 37832 ft 460 kts 328°
2026-05-06 07:34 6.40485 99.70576 37831 ft 460 kts 322°
2026-05-06 07:34 6.45530 99.66615 37831 ft 460 kts 322°
2026-05-06 07:35 6.50555 99.62632 37832 ft 460 kts 321°
2026-05-06 07:35 6.55505 99.58574 37574 ft 458 kts 321°
2026-05-06 07:36 6.57966 99.56544 37327 ft 457 kts 321°
2026-05-06 07:36 6.60425 99.54519 37135 ft 456 kts 321°
2026-05-06 07:36 6.65319 99.50507 37019 ft 457 kts 321°
2026-05-06 07:37 6.67811 99.48473 35987 ft 465 kts 321°
2026-05-06 07:37 6.70329 99.46421 35176 ft 466 kts 321°
2026-05-06 07:37 6.72853 99.44364 34283 ft 468 kts 321°
2026-05-06 07:37 6.75391 99.42295 33389 ft 470 kts 321°
2026-05-06 07:38 6.77938 99.40217 32630 ft 470 kts 321°
2026-05-06 07:38 6.80461 99.38157 32058 ft 465 kts 321°
2026-05-06 07:38 6.82930 99.36141 31443 ft 461 kts 321°
2026-05-06 07:38 6.85406 99.34121 30831 ft 458 kts 321°
2026-05-06 07:39 6.87870 99.32108 30225 ft 454 kts 321°
2026-05-06 07:39 6.90313 99.30111 29630 ft 451 kts 321°
2026-05-06 07:39 6.92737 99.28129 29035 ft 447 kts 321°
2026-05-06 07:39 6.95140 99.26160 28467 ft 443 kts 321°
2026-05-06 07:40 6.97500 99.24216 28207 ft 434 kts 321°
2026-05-06 07:40 6.99782 99.22239 28011 ft 433 kts 319°
2026-05-06 07:40 7.02010 99.20206 27807 ft 432 kts 317°
2026-05-06 07:40 7.04201 99.18145 27607 ft 431 kts 317°
2026-05-06 07:41 7.06347 99.16105 27409 ft 429 kts 317°
2026-05-06 07:41 7.08522 99.14050 27208 ft 428 kts 317°
2026-05-06 07:41 7.10702 99.12012 27008 ft 427 kts 317°
2026-05-06 07:41 7.12885 99.09991 26808 ft 426 kts 318°
2026-05-06 07:42 7.15067 99.07982 26607 ft 425 kts 318°
2026-05-06 07:42 7.17249 99.05979 26395 ft 423 kts 318°
2026-05-06 07:42 7.19416 99.03988 26207 ft 422 kts 318°
2026-05-06 07:42 7.21582 99.01994 26007 ft 421 kts 318°
2026-05-06 07:43 7.23711 99.00031 25824 ft 420 kts 318°
2026-05-06 07:43 7.25853 98.98038 25607 ft 419 kts 317°
2026-05-06 07:43 7.27984 98.96043 25406 ft 417 kts 317°
2026-05-06 07:43 7.30119 98.94064 25202 ft 416 kts 318°
2026-05-06 07:44 7.32255 98.92098 25003 ft 415 kts 318°
2026-05-06 07:44 7.34388 98.90142 24807 ft 414 kts 318°
2026-05-06 07:44 7.36513 98.88191 24602 ft 413 kts 318°
2026-05-06 07:44 7.38630 98.86245 24402 ft 411 kts 318°
2026-05-06 07:45 7.40732 98.84309 24202 ft 410 kts 317°
2026-05-06 07:45 7.42828 98.82372 24002 ft 408 kts 317°
2026-05-06 07:45 7.44889 98.80464 23801 ft 407 kts 317°
2026-05-06 07:45 7.46972 98.78537 23603 ft 406 kts 317°
2026-05-06 07:46 7.49049 98.76619 23407 ft 404 kts 317°
2026-05-06 07:46 7.51120 98.74705 23202 ft 403 kts 317°
2026-05-06 07:46 7.53186 98.72795 23003 ft 403 kts 317°
2026-05-06 07:46 7.55246 98.70890 22802 ft 401 kts 317°
2026-05-06 07:47 7.57299 98.68990 22606 ft 400 kts 318°
2026-05-06 07:47 7.59347 98.67099 22421 ft 399 kts 318°
2026-05-06 07:47 7.61388 98.65212 22216 ft 397 kts 318°
2026-05-06 07:47 7.63390 98.63362 22022 ft 396 kts 318°
2026-05-06 07:48 7.65423 98.61484 21374 ft 399 kts 318°
2026-05-06 07:48 7.67497 98.59566 20514 ft 408 kts 318°
2026-05-06 07:48 7.69584 98.57631 19918 ft 407 kts 318°
2026-05-06 07:48 7.71663 98.55702 19399 ft 405 kts 318°
2026-05-06 07:49 7.73729 98.53789 18888 ft 402 kts 318°
2026-05-06 07:49 7.75782 98.51889 18382 ft 399 kts 318°
2026-05-06 07:49 7.77794 98.50030 17873 ft 395 kts 318°
2026-05-06 07:49 7.79750 98.48125 16985 ft 389 kts 311°
2026-05-06 07:50 7.81283 98.45902 16076 ft 384 kts 298°
2026-05-06 07:50 7.82514 98.43524 15128 ft 381 kts 298°
2026-05-06 07:50 7.83720 98.41193 14570 ft 368 kts 298°
2026-05-06 07:50 7.84882 98.38956 14117 ft 353 kts 298°
2026-05-06 07:51 7.86000 98.36807 13680 ft 339 kts 298°
2026-05-06 07:51 7.87079 98.34739 13253 ft 327 kts 298°
2026-05-06 07:51 7.88115 98.32750 12838 ft 325 kts 298°
2026-05-06 07:51 7.89169 98.30725 12390 ft 326 kts 298°
2026-05-06 07:52 7.90233 98.28676 11959 ft 337 kts 298°
2026-05-06 07:52 7.91326 98.26567 11448 ft 340 kts 298°
2026-05-06 07:52 7.92418 98.24458 10978 ft 339 kts 298°
2026-05-06 07:52 7.93508 98.22355 10515 ft 338 kts 298°
2026-05-06 07:53 7.94595 98.20264 10075 ft 336 kts 298°
2026-05-06 07:53 7.95659 98.18212 9930 ft 324 kts 298°
2026-05-06 07:53 7.96672 98.16254 9797 ft 314 kts 298°
2026-05-06 07:53 7.97681 98.14312 9545 ft 313 kts 298°
2026-05-06 07:54 7.98627 98.12328 9128 ft 313 kts 290°
2026-05-06 07:54 7.99092 98.10202 8738 ft 311 kts 274°
2026-05-06 07:54 7.99007 98.08034 8347 ft 309 kts 264°
2026-05-06 07:54 7.98933 98.05927 8157 ft 292 kts 279°
2026-05-06 07:55 7.99661 98.04084 7676 ft 280 kts 309°
2026-05-06 07:55 8.01108 98.02854 7074 ft 271 kts 338°
2026-05-06 07:55 8.02899 98.02408 6440 ft 264 kts 358°
2026-05-06 07:55 8.04700 98.02243 5882 ft 260 kts 358°
2026-05-06 07:56 8.06449 98.02227 5478 ft 245 kts 17°
2026-05-06 07:56 8.07894 98.02991 5004 ft 231 kts 48°
2026-05-06 07:56 8.08697 98.04335 4525 ft 222 kts 77°
2026-05-06 07:56 8.08896 98.05857 4061 ft 219 kts 85°
2026-05-06 07:57 8.09039 98.07363 4000 ft 217 kts 85°
2026-05-06 07:57 8.09179 98.08825 3983 ft 202 kts 85°
2026-05-06 07:57 8.09317 98.10262 3530 ft 209 kts 85°
2026-05-06 07:57 8.09455 98.11723 3099 ft 214 kts 85°
2026-05-06 07:58 8.09591 98.13179 3001 ft 201 kts 85°
2026-05-06 07:58 8.09717 98.14536 3006 ft 191 kts 85°
2026-05-06 07:58 8.09840 98.15862 2923 ft 190 kts 85°
2026-05-06 07:58 8.09964 98.17200 2615 ft 192 kts 84°
2026-05-06 07:59 8.10087 98.18543 2344 ft 192 kts 84°
2026-05-06 07:59 8.10206 98.19849 2117 ft 182 kts 84°
2026-05-06 07:59 8.10321 98.21090 1850 ft 179 kts 83°
2026-05-06 07:59 8.10438 98.22334 1604 ft 178 kts 83°
2026-05-06 08:00 8.10556 98.23573 1368 ft 177 kts 83°
2026-05-06 08:00 8.10670 98.24784 1119 ft 167 kts 83°
2026-05-06 08:00 8.10775 98.25907 923 ft 155 kts 84°
2026-05-06 08:00 8.10873 98.26974 728 ft 152 kts 83°
2026-05-06 08:01 8.10969 98.28029 481 ft 151 kts 83°
2026-05-06 08:01 8.11079 98.29075 281 ft 150 kts 83°
2026-05-06 08:01 8.11170 98.30105 101 ft 149 kts 83°
2026-05-06 08:01 8.11268 98.31115 31 ft 132 kts 84°
2026-05-06 08:02 8.11338 98.31854 52 ft 80 kts 84°
2026-05-06 08:02 8.11374 98.32218 69 ft 26 kts 86°
2026-05-06 08:02 8.11342 98.32373 72 ft 15 kts 111°
2026-05-06 08:02 8.11305 98.32430 77 ft 7 kts 157°
2026-05-06 08:03 8.11255 98.32410 73 ft 13 kts 246°
2026-05-06 08:03 8.11243 98.32289 66 ft 21 kts 265°
2026-05-06 08:03 8.11228 98.32126 61 ft 26 kts 264°
2026-05-06 08:03 8.11210 98.31928 51 ft 31 kts 265°
2026-05-06 08:04 8.11191 98.31731 47 ft 27 kts 264°
2026-05-06 08:04 8.11172 98.31525 39 ft 32 kts 264°
2026-05-06 08:04 8.11153 98.31327 33 ft 24 kts 264°
2026-05-06 08:04 8.11138 98.31167 30 ft 24 kts 264°
2026-05-06 08:05 8.11126 98.31041 30 ft 18 kts 265°
2026-05-06 08:05 8.11087 98.30918 29 ft 18 kts 256°
2026-05-06 08:05 8.11077 98.30809 29 ft 16 kts 265°
2026-05-06 08:05 8.11066 98.30696 28 ft 17 kts 265°
2026-05-06 08:06 8.11053 98.30577 28 ft 18 kts 265°
2026-05-06 08:06 8.11044 98.30466 27 ft 13 kts 257°
2026-05-06 08:06 8.10978 98.30400 27 ft 15 kts 200°
2026-05-06 08:06 8.10874 98.30372 27 ft 16 kts 195°
2026-05-06 08:07 8.10758 98.30341 27 ft 18 kts 194°
2026-05-06 08:07 8.10679 98.30321 26 ft 8 kts 194°
2026-05-06 08:07 8.10628 98.30308 26 ft 6 kts 194°
2026-05-06 08:07 8.10626 98.30307 26 ft 1 kts 194°
2026-05-06 08:08 8.10595 98.30299 26 ft 5 kts 195°
2026-05-06 08:08 8.10570 98.30276 26 ft 6 kts 261°
2026-05-06 08:08 8.10580 98.30232 29 ft 6 kts 284°
2026-05-06 08:08 8.10583 98.30223 26 ft 0 kts 285°
2026-05-06 08:09 8.10583 98.30221 29 ft 0 kts 285°
2026-05-06 08:09 8.10584 98.30217 28 ft 1 kts 285°
2026-05-06 08:09 8.10585 98.30213 27 ft 0 kts 285°